Regional Weather Roundup
Issued by NWS State College, PA

Home | Current Version | Previous Version | Text Only | Print | Product List | Glossary On
Versions: 1 2 3 4 5 6 7 8 9 10 11 12 13 14 15 16 17 18 19 20 21 22 23 24 25 26 27 28 29 30 31 32 33 34 35 36 37 38 39 40 41 42 43 44 45 46 47 48 49 50
000
ASUS41 KCTP 220503
RWRCTP

REGIONAL WEATHER ROUNDUP
NATIONAL WEATHER SERVICE STATE COLLEGE PA
100 AM EDT TUE JUL 22 2014

Note: "fair" indicates few or no clouds below 12,000 feet with no
significant weather and/or obstructions to visibility.

* = STATION THAT DOES NOT REPORT PRECIPITATION /E.G. RAIN...SNOW...ETC/
    THUNDER OR FOG.

PAZ002>004-007>009-013>016-020>023-029>032-220600-
WESTERN PENNSYLVANIA

CITY           SKY/WX    TMP DP  RH WIND       PRES   REMARKS
ERIE           CLEAR     67  61  81 CALM      30.13S
MEADVILLE      CLEAR     69  64  84 CALM      30.17S
FRANKLIN*      CLEAR     68  63  83 E6        30.19R
NEW CASTLE       N/A     66  66 100 CALM      30.16R
BEAVER COUNTY  NOT AVBL
BUTLER*        CLEAR     72  66  83 SE3       30.17S
PITTSBURGH INT CLEAR     73  69  87 CALM      30.14S
PITTSBURGH     CLEAR     73  67  81 S5        30.15R
INDIANA*       CLOUDY    72  68  88 CALM      30.21S
LATROBE        MOCLDY    75  70  83 CALM      30.16S
WASHINGTON CO* MOCLDY    64  64 100 CALM      30.15S VSB 1/2
$$

PAZ004>006-010>012-017>019-024>028-033>037-041-042-045-046-049>053-220600-
CENTRAL PENNSYLVANIA

CITY           SKY/WX    TMP DP  RH WIND       PRES   REMARKS
BRADFORD       MOCLDY    65  63  93 CALM      30.21R FOG
DUBOIS         MOCLDY    71  67  87 SE3       30.19R
CLEARFIELD     CLEAR     65  65 100 N3        30.20R FOG
JOHNSTOWN      CLEAR     67  65  93 S7        30.22S
ALTOONA        PTCLDY    67  66  97 CALM      30.20S
STATE COLLEGE  MOCLDY    66  65  94 CALM      30.20R
WILLIAMSPORT   CLEAR     68  64  87 CALM      30.16S
SELINSGROVE    CLEAR     66  64  93 CALM      30.18R FOG
FT INDIANTOWN  PTCLDY    65  65 100 N1        30.18S
CAPITAL CITY   CLOUDY    73  65  75 CALM      30.17S
HARRISBURG     PTCLDY    74  66  76 VRB3      30.17S
YORK           CLEAR     70  64  81 SW3       30.18S
$$

PAZ038>040-043-044-047-048-054-055-060>062-067>071-220600-
EASTERN PENNSYLVANIA

CITY           SKY/WX    TMP DP  RH WIND       PRES   REMARKS
SCRANTON       CLEAR     67  63  87 CALM      30.19R
MOUNT POCONO   CLEAR     63  60  90 W6        30.23R
ALLENTOWN      CLEAR     68  63  84 SW3       30.18R
QUAKERTOWN*    CLEAR     66  64  94 CALM      30.20S
READING        HAZE      71  64  78 S5        30.18R VSB 1
LANCASTER      MOCLDY    67  64  90 SE5       30.18R
COATESVILLE    CLEAR     66  63  88 CALM      30.21R
POTTSTOWN      CLEAR     68  61  78 CALM      30.21R
BLUE BELL      CLEAR     66  63  88 CALM      30.18S
DOYLESTOWN     CLEAR     68  61  78 CALM      30.19R
WILLOW GROVE   NOT AVBL
NORTH PHILA    CLEAR     72  57  59 SW3       30.20R
PHILADELPHIA   CLEAR     72  59  63 W5        30.19R
$$


USA.gov is the U.S. government's official web portal to all federal, state and local government web resources and services.